Home   Weather   Stavern   Past weeks

Flag for Norway Past Weather in Stavern, Norway — Yesterday and Last 2 Weeks

Now
61 °F

Partly sunny.


Feels Like: 61 °F
Forecast: 53 / 62 °F
Wind: 8 mph from South

Location: Torp

Current Time: Sep 25, 2016 at 10:53:08 AM

Latest Report: Sep 25, 2016 at 10:20 AM


Visibility: 6 mi

Pressure: 30.09 "Hg

Humidity: 100%

Dew Point: 61 °F

Location of StavernLocation

Past Weather in Stavern — Graph

°F

Stavern Temperature Yesterday

Maximum temperature yesterday: 63 °F (at 2:50 PM)
Minimum temperature yesterday: 43 °F (at 6:20 AM)
Average temperature yesterday: 53 °F

High & Low Weather Summary for the Past Weeks

 TemperatureHumidityPressure
High72 °F (Sep 14, 3:20 PM)100% (Sep 10, 9:20 AM)30.24 "Hg (Sep 10, 9:20 AM)
Low43 °F (Sep 24, 6:20 AM)37% (Sep 11, 4:20 PM)29.71 "Hg (Sep 11, 6:20 AM)
Average58 °F93%30.10 "Hg
* Reported Sep 10 9:20 AM — Sep 25 9:50 AM, Stavern, Weather by CustomWeather, © 2016

Note: Actual official high and low records may vary slightly from our data, if they occured in-between our weather recording intervals... More about our weather records

Advertising

Stavern Weather History for the Previous 24 Hours

Scroll right to see more
 ConditionsComfort  
Time TempWeatherWind HumidityBarometerVisibility
9:50 AM
Sun, Sep 25
59 °FPartly sunny.9 mph100%30.09 "Hg4 mi
9:20 AM59 °FPartly sunny.9 mph100%30.07 "Hg4 mi
8:50 AM59 °FPartly sunny.7 mph100%30.07 "Hg5 mi
8:20 AM59 °FPartly sunny.8 mph100%30.07 "Hg5 mi
7:50 AM59 °FBroken clouds.10 mph100%30.07 "Hg5 mi
7:20 AM59 °FPartly sunny.8 mph100%30.07 "Hg6 mi
6:50 AM59 °FPartly cloudy.8 mph100%30.07 "Hg6 mi
6:20 AM59 °FPartly cloudy.9 mph100%30.07 "HgN/A
5:50 AM59 °FPartly cloudy.10 mph100%30.07 "HgN/A
5:20 AM59 °FPartly cloudy.10 mph100%30.07 "HgN/A
4:50 AM59 °FMostly cloudy.10 mph100%30.07 "HgN/A
4:20 AM59 °FMostly cloudy.12 mph100%30.07 "HgN/A
3:50 AM59 °FLow clouds.10 mph100%30.07 "HgN/A
3:20 AM59 °FPassing clouds.9 mph100%30.07 "HgN/A
2:50 AM59 °FPartly cloudy.9 mph100%30.07 "Hg4 mi
2:20 AM59 °FPartly cloudy.7 mph100%30.07 "Hg4 mi
1:50 AM59 °FDrizzle. Mostly cloudy.14 mph100%30.07 "Hg5 mi
1:20 AM59 °FPartly cloudy.14 mph100%30.07 "Hg5 mi
12:50 AM59 °FPassing clouds.13 mph100%30.07 "HgN/A
12:20 AM61 °FMostly cloudy.14 mph100%30.07 "HgN/A
11:50 PM
Sat, Sep 24
61 °FMostly cloudy.15 mph100%30.07 "HgN/A
11:20 PM61 °FMostly cloudy.15 mph100%30.07 "HgN/A
10:50 PM61 °FPassing clouds.13 mph100%30.07 "HgN/A
10:20 PM59 °FPassing clouds.13 mph100%30.07 "HgN/A
9:50 PM59 °FPassing clouds.13 mph100%30.07 "HgN/A
9:20 PM59 °FPassing clouds.14 mph100%30.07 "HgN/A
8:50 PM59 °FPassing clouds.16 mph100%30.07 "HgN/A
8:20 PM59 °FPassing clouds.13 mph100%30.07 "HgN/A
7:50 PM59 °FPassing clouds.14 mph100%30.07 "HgN/A
7:20 PM59 °FPassing clouds.13 mph100%30.07 "HgN/A
6:50 PM59 °FScattered clouds.12 mph94%30.07 "HgN/A
6:20 PM59 °FScattered clouds.12 mph94%30.07 "HgN/A
5:50 PM59 °FScattered clouds.12 mph88%30.07 "HgN/A
5:20 PM59 °FBroken clouds.12 mph88%30.09 "HgN/A
4:50 PM59 °FBroken clouds.13 mph88%30.09 "HgN/A
4:20 PM61 °FBroken clouds.14 mph77%30.09 "HgN/A
3:50 PM61 °FPartly sunny.12 mph72%30.09 "HgN/A
3:20 PM61 °FScattered clouds.14 mph72%30.09 "HgN/A
2:50 PM63 °FSunny.13 mph64%30.09 "Hg10 mi
2:20 PM61 °FPassing clouds.13 mph63%30.09 "HgN/A
1:50 PM59 °FSunny.10 mph63%30.09 "Hg10 mi
1:20 PM59 °FSunny.13 mph59%30.09 "Hg10 mi
12:50 PM59 °FSunny.13 mph59%30.09 "Hg10 mi
12:20 PM57 °FPassing clouds.9 mph63%30.09 "HgN/A
11:50 AM55 °FPassing clouds.5 mph67%30.09 "HgN/A
11:20 AM54 °FSunny.5 mph67%30.09 "Hg10 mi
10:20 AM52 °FSunny.No wind67%30.09 "Hg10 mi
Weather by CustomWeather, © 2016

See weather overviewHow to use our weather pages